Clemson, SC

10:23 AM EDT on April 23, 2017 (GMT -0400)
Oconee County Regional

Weather History for KCEU - January, 2002

Change the Weather History Date:

Wednesday, January 30, 2002

  Actual Average Record
Temperature  
Mean Temperature 63 °F -  
Max Temperature 73 °F 55 °F 75 °F (1975)
Min Temperature 53 °F 30 °F 0 °F (1966)
Degree Days  
Heating Degree Days 2    
Growing Degree Days 13 (Base 50)    
Moisture  
Dew Point 56 °F    
Average Humidity 82    
Maximum Humidity 100    
Minimum Humidity 57    
Precipitation  
Precipitation 0.00 in - - ()
Sea Level Pressure  
Sea Level Pressure 30.18 in    
Wind  
Wind Speed 5 mph (SW)    
Max Wind Speed 15 mph    
Max Gust Speed 21 mph    
Visibility 8 miles    
Events      
Averages and records for this station are not official NWS values.
T = Trace of Precipitation, MM = Missing Value Source: NWS Daily Summary

Daily Weather History Graph

Daily Weather History Graph

Search for Another Location

Airport or City:

Trip Planner

Search our weather history database for the weather conditions in past years. The results will help you decide how hot, cold, wet, or windy it might be!

Date:

Astronomy

Jan. 30, 2002 Rise Set
Actual Time 7:31 AM EST 5:58 PM EST
Civil Twilight 7:04 AM EST 6:25 PM EST
Nautical Twilight 6:34 AM EST 6:55 PM EST
Astronomical Twilight 6:04 AM EST 7:25 PM EST
Moon 8:12 PM EST (1/30) 9:02 AM EST (1/30)
Length of Visible Light 11h 20m
Length of Day
10h 27m
Waning Gibbous, 95% of the Moon is Illuminated
Jan 30
Waning Gibbous
Feb 4
Last Quarter
Feb 12
New
Feb 20
First Quarter
Feb 27
Full

Hourly Weather History & Observations

Time (EST) Temp. Dew Point Humidity Pressure Visibility Wind Dir Wind Speed Gust Speed Precip Events Conditions
12:54 AM 60.1 °F 55.0 °F 83% 30.18 in 10.0 mi SW 3.5 mph - N/A   Clear
1:54 AM 59.0 °F 55.9 °F 90% 30.19 in 10.0 mi WSW 4.6 mph - N/A   Clear
2:54 AM 57.9 °F 55.0 °F 90% 30.18 in 10.0 mi SSW 3.5 mph - N/A   Clear
3:54 AM 57.0 °F 55.0 °F 93% 30.17 in 8.0 mi SSW 4.6 mph - N/A   Clear
4:54 AM 55.0 °F 54.0 °F 96% 30.17 in 7.0 mi SW 4.6 mph - N/A   Clear
5:54 AM 55.9 °F 55.0 °F 97% 30.18 in 5.0 mi SW 6.9 mph - N/A   Clear
6:54 AM 54.0 °F 54.0 °F 100% 30.19 in 3.0 mi WSW 5.8 mph - N/A   Clear
7:42 AM 55.4 °F 53.6 °F 94% 30.20 in 2.5 mi SW 3.5 mph - N/A   Clear
7:54 AM 53.1 °F 53.1 °F 100% 30.19 in 1.5 mi SW 4.6 mph - N/A   Clear
8:16 AM 55.4 °F 55.4 °F 100% 30.21 in 2.0 mi SW 5.8 mph - N/A   Clear
8:30 AM 55.4 °F 55.4 °F 100% 30.21 in 1.2 mi SW 5.8 mph - N/A   Clear
8:39 AM 55.4 °F 55.4 °F 100% 30.21 in 3.0 mi SW 4.6 mph - N/A   Clear
8:54 AM 55.0 °F 54.0 °F 96% 30.20 in 4.0 mi South 5.8 mph - N/A   Clear
9:54 AM 60.1 °F 57.0 °F 90% 30.22 in 6.0 mi SW 6.9 mph - N/A   Clear
10:54 AM 64.9 °F 57.9 °F 78% 30.22 in 10.0 mi WSW 9.2 mph - N/A   Clear
11:54 AM 68.0 °F 57.0 °F 68% 30.21 in 10.0 mi WSW 11.5 mph 17.3 mph N/A   Clear
12:54 PM 71.1 °F 57.0 °F 61% 30.18 in 10.0 mi South 12.7 mph - N/A   Clear
1:54 PM 71.1 °F 57.0 °F 61% 30.16 in 10.0 mi SW 15.0 mph 20.7 mph N/A   Clear
2:54 PM 73.0 °F 57.9 °F 59% 30.14 in 10.0 mi SW 9.2 mph 17.3 mph N/A   Clear
3:54 PM 73.9 °F 57.9 °F 57% 30.14 in 10.0 mi SSW 9.2 mph 17.3 mph N/A   Clear
4:54 PM 73.0 °F 57.9 °F 59% 30.15 in 10.0 mi SSW 5.8 mph - N/A   Clear
5:54 PM 71.1 °F 57.9 °F 63% 30.15 in 10.0 mi South 3.5 mph - N/A   Clear
6:54 PM 69.1 °F 57.9 °F 68% 30.16 in 10.0 mi Calm Calm - N/A   Clear
7:54 PM 66.9 °F 57.9 °F 73% 30.17 in 10.0 mi Calm Calm - N/A   Clear
8:54 PM 66.0 °F 57.9 °F 75% 30.18 in 10.0 mi Calm Calm - N/A   Mostly Cloudy
9:54 PM 64.0 °F 57.9 °F 80% 30.18 in 10.0 mi Calm Calm - N/A   Scattered Clouds
10:54 PM 63.0 °F 57.9 °F 84% 30.18 in 10.0 mi Calm Calm - N/A   Partly Cloudy
11:54 PM 62.1 °F 57.9 °F 86% 30.18 in 7.0 mi Calm Calm - N/A   Clear